This demonstration page uses our WeatherBlox Daily Observations layout. Learn more.

Left ArrowRight Arrow

Hourly Observations for March 27, 2015

Temp ( °F °C ) Dew Point ( °F °C ) Humidity (%) Winds ( mph kmh ) Pressure ( in mb ) Visibility ( mi km ) Precip ( " mm )
12:53 am 00:53 Clear 49 9.4 39 3.9 69 69 SW 12 19 30.03 1017 10 16 N/A
1:53 am 01:53 Clear 47 8.3 39 3.9 74 74 SW 12 19 30.02 1017 10 16 N/A
2:53 am 02:53 Clear 48 8.9 39 3.9 71 71 SW 13 20 30.02 1017 10 16 N/A
3:53 am 03:53 Clear 47 8.3 38 3.3 71 71 SW 14 22 30.01 1016 10 16 N/A
4:53 am 04:53 Clear 45 7.2 37 2.8 74 74 SW 15 24 30.01 1016 10 16 N/A
5:53 am 05:53 Clear 44 6.7 37 2.8 76 76 WSW 13 20 30.01 1016 10 16 N/A
6:53 am 06:53 Clear 44 6.7 37 2.8 76 76 SW 13 20 30.01 1016 10 16 N/A
7:53 am 07:53 Sunny 44 6.7 37 2.8 76 76 SW 13 20 30.02 1017 10 16 N/A
8:53 am 08:53 Sunny 48 8.9 38 3.3 68 68 SW 13 20 30.01 1016 10 16 N/A
9:53 am 09:53 Sunny 54 12.2 38 3.3 55 55 SW 10 17 30.00 1016 10 16 N/A
10:53 am 10:53 Sunny 59 15 36 2.2 42 42 W 5 7 29.98 1015 10 16 N/A
11:53 am 11:53 Sunny 66 18.9 35 1.7 32 32 W 8 13 29.96 1014 10 16 N/A
12:53 pm 12:53 Sunny 69 20.6 31 -0.6 24 24 W 16 26 29.93 1014 10 16 N/A
1:53 pm 13:53 Sunny 70 21.1 32 undefined 25 25 WNW 15 24 29.92 1013 10 16 N/A
2:53 pm 14:53 Sunny 72 22.2 31 -0.6 22 22 WNW 18 30 29.88 1012 10 16 N/A
3:53 pm 15:53 Sunny 73 22.8 29 -1.7 19 19 NW 14 22 29.86 1011 10 16 N/A
4:53 pm 16:53 Sunny 73 22.8 27 -2.8 18 18 NW 15 24 29.85 1011 10 16 N/A
5:53 pm 17:53 Sunny 74 23.3 29 -1.7 19 19 NW 14 22 29.84 1011 10 16 N/A
6:53 pm 18:53 Sunny 70 21.1 30 -1.1 23 23 NNE 6 9 29.85 1011 10 16 N/A
7:53 pm 19:53 Clear 55 12.8 37 2.8 51 51 S 9 15 29.87 1011 10 16 N/A
8:53 pm 20:53 Clear 52 11.1 35 1.7 53 53 SSW 10 17 29.86 1011 10 16 N/A
9:53 pm 21:53 Clear 50 10 34 1.1 54 54 SSW 8 13 29.85 1011 10 16 N/A
10:53 pm 22:53 Clear 51 10.6 33 0.6 50 50 S 15 24 29.83 1010 10 16 N/A
11:53 pm 23:53 Clear 48 8.9 35 1.7 61 61 SW 3 6 29.80 1009 10 16 N/A

Powered by AerisWeather